999  
ASUS43 KMKX 150120  
RWRWI  
 
WISCONSIN REGIONAL WEATHER ROUNDUP  
NATIONAL WEATHER SERVICE MILWAUKEE/SULLIVAN WI  
800 PM CDT WED APR 14 2021  
 
NOTE: "FAIR" INDICATES FEW OR NO CLOUDS BELOW 12,000 FEET WITH NO  
SIGNIFICANT WEATHER AND/OR S TO VISIBILITY
.  
 
WIZ001-002-006>008-014>016-023>028-150200-  
NORTHWEST WISCONSIN  
 
CITY SKY/WX TMP DP RH WIND PRES REMARKS
 
SUPERIOR ARPT CLOUDY 44 34 68 N7 30.12S  
ASHLAND CLOUDY 42 36 79 NE10 30.11R  
HAYWARD MOCLDY 41 35 79 VRB5 30.09R  
SIREN CLOUDY 40 35 81 N5 30.13R  
CUMBERLAND CLOUDY 37 34 87 NW10 30.10R WCI 30  
RICE LAKE CLOUDY 42 35 78 W5 30.11R  
CHETEK CLOUDY 41 36 82 CALM 30.10R  
LADYSMITH N/A 43 35 74 NW9 30.09R  
EAU CLAIRE CLOUDY 44 33 65 NW9 30.08R  
MENOMONIE CLOUDY 40 32 73 W7 30.10S  
NEW RICHMOND DRIZZLE 41 36 82 NW8 30.13R  
OSCEOLA CLOUDY 41 39 92 NW8 30.16S  

 
 
WIZ003>005-009-010-017-018-150200-  
NORTH CENTRAL WISCONSIN  
 
CITY SKY/WX TMP DP RH WIND PRES REMARKS
 
MANITOWISH WTR LGT RAIN 35 35 100 N8 30.06R WCI 28  
ARBOR VITAE CLOUDY 37 28 71 N10G22 30.04R WCI 29  
WOODRUFF CLOUDY 37 28 71 N10G22 30.04R WCI 29  
RHINELANDER FLURRIES 34 32 92 N7 30.02R WCI 28  
EAGLE RIVER RAIN 34 34 99 N10G16 30.02R WCI 26  
LAND O LAKES CLOUDY 35 33 93 N8G16 30.04R WCI 28  
PHILLIPS CLOUDY 38 34 85 N7 30.06R WCI 33  
TOMAHAWK CLOUDY 36 33 90 N8 30.04R WCI 29  
MEDFORD DRIZZLE 38 36 92 N9 30.03R WCI 31  
MERRILL LGT RAIN 38 37 97 N9 30.01S WCI 31  

 
 
WIZ029-030-035-036-043>047-150200-  
CENTRAL WISCONSIN  
 
CITY SKY/WX TMP DP RH WIND PRES REMARKS
 
WAUSAU LGT RAIN 40 35 83 W6 30.00S  
MOSINEE LGT RAIN 37 36 93 NW12 30.03R WCI 30  
MARSHFIELD CLOUDY 41 30 65 W9 30.02S  
STEVENS POINT RAIN 38 30 74 W7 30.03R WCI 32  
WAUPACA MOCLDY 41 29 63 W7 30.03S  
WAUTOMA MOCLDY 38 28 67 W7 30.04F WCI 33  
WISC RAPIDS CLOUDY 40 28 62 W8 30.04F WCI 34  
CAMP DOUGLAS PTCLDY 36 28 75 W8 30.06F WCI 29  

 
 
WIZ011>013-019>022-031-037>040-048>050-150200-  
NORTHEAST WISCONSIN  
 
CITY SKY/WX TMP DP RH WIND PRES REMARKS
 
ANTIGO RAIN 35 34 97 N12 30.01R WCI 26  
SHAWANO CLOUDY 40 37 86 W5 30.00S  
OCONTO CLOUDY 39 37 90 CALM 30.00S  
STURGEON BAY LGT RAIN 37 36 96 NW5 30.00S WCI 33  
GREEN BAY LGT RAIN 42 31 64 W10 30.00S  
MANITOWOC CLOUDY 41 30 65 W10 30.01S  
APPLETON MOCLDY 39 21 48 W12 30.00S WCI 32  
CLINTONVILLE LGT RAIN 38 34 84 NW13G20 30.02R WCI 30  
OSHKOSH MOCLDY 38 28 67 W6 30.02S WCI 33  

 
 
WIZ032>034-041-042-053>061-150200-  
SOUTHWEST WISCONSIN  
 
CITY SKY/WX TMP DP RH WIND PRES REMARKS
 
LA CROSSE CLEAR 40 30 67 W7 30.10F  
SPARTA N/A 36 30 79 SW3 30.09S  
VIROQUA CLEAR 34 31 89 W6 30.08S WCI 29  
BOSCOBEL CLOUDY 42 29 59 NW8 30.12R  
PRAIRIE DU CHI CLOUDY 40 28 63 NW6 30.12S  
PLATTEVILLE CLOUDY 38 32 77 NW6 30.11R WCI 34  

 
 
WIZ056-057-062-063-064-067-068-150200-  
SOUTH CENTRAL WISCONSIN  
 
CITY SKY/WX TMP DP RH WIND PRES REMARKS
 
REEDSBURG MOCLDY 37 28 69 W7 30.07F WCI 32  
BARABOO/DELLS CLOUDY 36 28 73 W5 30.07S WCI 32  
LONE ROCK CLOUDY 40 29 64 W9 30.10R WCI 34  
MINERAL POINT CLOUDY 39 30 70 NW6 30.09S WCI 35  
MADISON CLOUDY 39 28 64 W8 30.07R WCI 33  
MIDDLETON CLOUDY 40 30 66 NW8 30.08S WCI 35  
WATERTOWN CLOUDY 38 30 72 W5 30.06S WCI 34  
MONROE CLOUDY 38 28 66 NW7 30.08R WCI 33  
JANESVILLE CLOUDY 41 27 56 NW8 30.07S  

 
 
WIZ051-052-058>065-066-070>072-150200-  
SOUTHEAST WISCONSIN  
 
CITY SKY/WX TMP DP RH WIND PRES REMARKS
 
MILWAUKEE CLOUDY 41 26 55 NW14 30.06S  
WAUKESHA CLOUDY 36 27 69 W8 30.06S WCI 29  
MILWAUKEE/TIMM CLOUDY 39 25 56 NW9 30.06S WCI 33  
RACINE CLOUDY 40 27 59 NW7 30.08S  
KENOSHA CLOUDY 41 27 57 NW8 30.06S  
FOND DU LAC CLEAR 38 27 64 W5 30.03S WCI 34  
SHEBOYGAN CLEAR 38 28 67 W8 30.02S WCI 32  
WEST BEND CLEAR 36 28 75 W7 30.04R WCI 30  
JUNEAU PTCLDY 37 28 71 W3 30.06S  

 
 
LSZ147-162-150200-  
LAKE SUPERIOR  
 
STATION/POSITION TIME TEMP WIND PRES WAVE
 
AIR SEA DIR/SP/G HT/PER  
(UTC) (F) (DEG/KT/KT) (MB) (FT/S)  
DEVILS ISLAND 0100 39 340/ 8/ 9 1020.5R  
PORT WING 0040 40 300/ 6/ 9 1019.6S  
SAXON HARBOR 0040 39 40/ 4/ 6 1019.0R  

 
 
LMZ867-665-643>646-150200-  
LAKE MICHIGAN  
 
STATION/POSITION TIME TEMP WIND PRES WAVE
 
AIR SEA DIR/SP/G HT/PER  
(UTC) (F) (DEG/KT/KT) (MB) (FT/S)  
CHAMBERS ISLAND 0040 37 190/ 3/ 5 N/A  
NORTHPORT PIER 0040 39 250/ 3/ 5 1016.3S  
KEWAUNEE LAKESHO 0036 42 280/ 9/ 15 1015.2R  
SHEBOYGAN LAKESH 0100 40 260/ 12/ 13 N/A  
PORT WASHINGTON 0040 40 300/ 4/ 7 1018.3S  
ATWATER BUOY 0100 41 41 280/ 8/ 10 1017.8 1  
MILWAUKEE LAKESH 0100 40 290/ 8/ 10 N/A  
KENOSHA LAKESH 0100 40 300/ 9/ 13 1018.3  

 
 
TC - TEMPERATURE IN CELSIUS  
VSB - VISIBILITY IN STATUTE MILES  
WCI - WIND CHILL INDEX  
HX - HEAT INDEX  
 
 
 
CLICK HERE TO GO TO PREVIOUS BULLETINS.

The Nexlab WI Page Main Text Page